This is the latest recevied weather packets stored in our database for station/object KK6LVQ-13. If no packets are shown the sender has not sent any weather packets the latest 10 day(s).
| Time | Temp. | Humidity | Pressure | Rain* | Wind** | Luminosity | Snow |
|---|---|---|---|---|---|---|---|
| 1777663471 | 21.11° C | 61% | 1019.6 hPa | 0 mm | - | 739 W/m² | - |
| 1777663168 | 21.11° C | 58% | 1019.8 hPa | 0 mm | - | 734 W/m² | - |
| 1777662865 | 20.56° C | 60% | 1019.7 hPa | 0 mm | - | 702 W/m² | - |
| 1777662562 | 20° C | 59% | 1019.8 hPa | 0 mm | - | 742 W/m² | - |
| 1777662258 | 20° C | 64% | 1020 hPa | 0 mm | - | 756 W/m² | - |
| 1777661958 | 19.44° C | 65% | 1020 hPa | 0 mm | - | 721 W/m² | - |
| 1777661654 | 19.44° C | 69% | 1020 hPa | 0 mm | - | 731 W/m² | - |
| 1777661350 | 18.89° C | 67% | 1020 hPa | 0 mm | - | 699 W/m² | - |
| 1777661047 | 18.33° C | 69% | 1020 hPa | 0 mm | - | 701 W/m² | - |
| 1777660741 | 17.78° C | 69% | 1020.2 hPa | 0 mm | - | 731 W/m² | - |
| 1777660439 | 17.78° C | 72% | 1020.4 hPa | 0 mm | - | 716 W/m² | - |
| 1777660136 | 17.78° C | 73% | 1020.4 hPa | 0 mm | - | 705 W/m² | - |
| 1777659832 | 17.22° C | 74% | 1020.3 hPa | 0 mm | - | 680 W/m² | - |
| 1777659529 | 16.67° C | 76% | 1020.6 hPa | 0 mm | - | 666 W/m² | - |
| 1777659226 | 16.67° C | 76% | 1020.6 hPa | 0 mm | - | 638 W/m² | - |
| 1777658924 | 16.11° C | 77% | 1020.5 hPa | 0 mm | - | 649 W/m² | - |
| 1777658619 | 16.11° C | 78% | 1020.5 hPa | 0 mm | - | 686 W/m² | - |
| 1777658317 | 15.56° C | 79% | 1020.7 hPa | 0 mm | - | 633 W/m² | - |
| 1777658013 | 15.56° C | 79% | 1020.7 hPa | 0 mm | - | 638 W/m² | - |
| 1777657710 | 16.11° C | 79% | 1020.7 hPa | 0 mm | - | 646 W/m² | - |
| 1777657408 | 15.56° C | 79% | 1020.7 hPa | 0 mm | - | 635 W/m² | - |
| 1777657106 | 15.56° C | 79% | 1020.7 hPa | 0 mm | - | 619 W/m² | - |
| 1777656803 | 15.56° C | 79% | 1020.7 hPa | 0 mm | - | 610 W/m² | - |
| 1777656498 | 15° C | 80% | 1020.7 hPa | 0 mm | - | 599 W/m² | - |
| 1777656193 | 15° C | 81% | 1020.6 hPa | 0 mm | - | 586 W/m² | - |
* Rain latest hour (hover to see other rain measurements)
** Current wind speed in m/s (hover to see current wind gust speed)